www.pogodaiklimat.ru

Погода и климат >> Архив погоды >> Россия >> Воронежская область >> Анна


ПОГОДА в Анне

  • Прогноз погоды в Анне
  • Монитор погоды в Анне

АРХИВ ПОГОДЫ в Анне

Время (UTC), дата Ветер
(напр.,м/с)
 
Видим.   Явления Облачность Т
(С)
Тd
(С)
f
(%)
Тe
(С)
Тes
(С)
Комфортность P
(гПа)
Po
(гПа)
Тmin
(С)
Tmax
(С)
R
(мм)
R24
(мм)
S
(см)
18 19.05 С 2 10 км ясно +17.5 +3.9 40 +18 +18 1016.5 998.2
21 19.05 штиль 0 10 км ясно +11.0 -4.6 33 +11 +11 1018.2 999.5
00 20.05 штиль 0 10 км ясно +7.3 +4.3 81 +6 +6 1019.1 1000.2
03 20.05 штиль 0 10 км ясно +9.8 +4.9 72 +9 +11 1019.8 1001.0 +5.8
06 20.05 С 3 10 км ясно +18.1 +3.6 38 +18 +26 1020.8 1002.4
09 20.05 С 2
{10}
10 км 3/0
[Ci fib]
+19.1 +2.8 34 +20 +35 опасность
простуды
1021.3 1003.0
12 20.05 С 3 10 км 3/0
[Ci fib]
+20.3 +2.2 30 +21 +30 комфорт 1020.5 1002.4
15 20.05 С 2 10 км 1/0
[Ci fib]
+20.1 +0.4 27 +21 +23 комфорт 1019.9 1001.9 +21.5
18 20.05 штиль 0 10 км 3/0
[Ci fib]
+13.2 +2.2 47 +13 +13 1020.9 1002.3
21 20.05 штиль 0 10 км ясно +8.7 +3.9 72 +8 +8 1021.6 1002.7
00 21.05 штиль 0 10 км ясно +5.9 +3.0 82 +5 +5 1022.0 1003.1
03 21.05 штиль 0 10 км ясно +12.0 +6.1 67 +12 +13 1022.1 1003.5 +5.4
06 21.05 штиль 0 10 км 4/0
[Ci fib]
+19.4 +6.7 44 +20 +32 1021.8 1003.5
09 21.05 ЮВ 1 10 км 4/0
[Ci fib]
+22.0 +4.8 33 +22 +40 комфорт 1020.9 1002.9
12 21.05 В 2 10 км 8/0
[Ci fib]
+23.6 +5.4 31 +24 +33 комфорт 1019.9 1001.9
15 21.05 В 2 10 км 4/0
[Ci fib]
+23.0 +5.6 32 +23 +26 комфорт 1018.4 1000.5 +24.2
18 21.05 Ю 1 10 км 3/0
[Ci fib]
+16.2 +9.9 66 +17 +17 1018.7 1000.4
21 21.05 штиль 0 10 км 3/0
[Ci fib]
+10.9 +7.6 80 +10 +10 1018.8 1000.1
00 22.05 Ю 2 10 км 8/0
[Ci sp]
+14.2 +3.7 49 +14 +14 1017.4 999.0
03 22.05 Ю 2 10 км 8/0
[Ci sp]
+14.4 +4.2 50 +14 +15 1016.7 998.3 +9.6
06 22.05 ЮЗ 2 10 км 8/0
[Ci sp]
+18.9 +7.3 47 +20 +28 1016.0 997.8
09 22.05 З 2 10 км 9/1 600 м
[Cu hum Ci fib]
+23.7 +5.0 30 +24 +36 комфорт 1014.0 996.2
12 22.05 Ю 4 10 км 10/8 600 м
[Cb calv Ci fib]
+23.0 +5.6 32 +23 +25 комфорт 1012.8 995.0
15 22.05 Ю 3 10 км 10/8 600 м
[Cb calv Ci sp]
+20.9 +9.5 48 +23 +23 комфорт 1011.7 993.8 +25.5
18 22.05 Ю 1 10 км {ливн. осадки} 10/10 600 м
[Cb calv]
+17.0 +12.7 76 +18 +18 1011.3 993.1
21 22.05 ЮВ 1 10 км 10/10 600 м
[Cb calv]
+17.0 +9.4 61 +18 +18 1010.4 992.2
00 23.05 ЮВ 1 10 км 9/3 600 м
[Cb calv Ac trans]
+12.7 +10.2 85 +13 +13 1009.1 990.7
03 23.05 штиль 0 10 км 8/3 600 м
[Cb calv Ac trans Ci sp]
+12.9 +8.7 76 +13 +13 1008.1 989.7 +11.4 0.0
06 23.05 штиль 0 10 км 8/0
[Cc]
+20.6 +5.2 36 +21 +32 комфорт 1006.9 989.0
09 23.05 В 1 10 км 3/1 600 м
[Cu hum Ci fib]
+23.4 +1.8 24 +23 +39 комфорт 1005.9 988.2
12 23.05 З 2
{11}
10 км 8/8 600 м
[Cu hum]
+26.2 +4.8 25 +25 +28 комфорт 1004.3 986.8
15 23.05 штиль 0 10 км 8/8 600 м
[Cb calv]
+22.5 +9.1 42 +24 +25 комфорт 1003.9 986.3 +26.7
18 23.05 З 2 10 км 9/9 600 м
[Cb calv]
+18.3 +12.4 68 +19 +19 1005.0 987.0
21 23.05 З 3 10 км ясно +15.5 +12.4 82 +15 +15 1005.6 987.4
00 24.05 З 3 10 км ясно +13.8 +12.1 89 +13 +13 1005.6 987.4
03 24.05 З 1 10 км 3/0
[Ci fib]
+14.6 +12.8 89 +15 +16 1006.5 988.3 +12.1
06 24.05 СВ 2 10 км 5/0
[Ac trans Cc]
+20.6 +13.7 65 +24 +31 комфорт 1007.7 989.8
09 24.05 СВ 4 10 км 5/5 600 м
[Cu hum]
+22.9 +13.4 55 +26 +32 жарко 1008.6 990.9
12 24.05 СВ 3 10 км 6/6 600 м
[Cu hum]
+23.2 +12.4 51 +26 +30 жарко 1009.6 991.8
15 24.05 СВ 3 10 км 3/3 600 м
[Cu hum Ci fib]
+21.4 +11.8 54 +23 +25 комфорт 1010.1 992.3 +23.9
18 24.05 СВ 1 10 км 3/0
[Ci fib]
+17.1 +8.3 56 +18 +18 1012.1 993.9
21 24.05 В 2 10 км ясно +14.4 +6.8 60 +14 +14 1012.8 994.5
00 25.05 В 2 10 км 3/3 600 м
[Cb calv]
+12.9 +4.6 57 +12 +12 1012.3 993.8
03 25.05 В 5 10 км 3/3 600 м
[Cb calv]
+14.4 +8.9 70 +13 +13 1011.7 993.4 +12.5
06 25.05 В 4 10 км 8/6 600 м
[Cb calv Ac trans]
+15.3 +9.5 68 +14 +16 1011.9 993.6
09 25.05 В 4
{11}
10 км 8/8 600 м
[Cb calv]
+16.5 +9.4 63 +16 +18 1011.2 993.0
12 25.05 В 5-10
{12}
10 км 8/8 600 м
[Cb calv]
+17.9 +10.0 60 +18 +19 1010.1 992.0
15 25.05 В 6
{13}
10 км 9/8 600 м
[Cb calv Ac trans Ci sp]
+19.6 +11.2 58 +21 +21 комфорт 1009.1 991.1 +20.0
18 25.05 В 7 10 км 10/10 600 м
[Cb calv]
+15.9 +10.0 68 +14 +14 1008.4 990.3
21 25.05 В 3 10 км в посл. час ливневой дождь 10/10 600 м
[Cb calv]
+15.2 +10.1 72 +15 +15 1007.7 989.5
00 26.05 В 2 10 км {ливн. осадки} 10/10 600 м
[Cb calv]
+14.6 +8.7 68 +14 +14 1005.9 987.7
03 26.05 СВ 1 10 км 10/10 300 м
[Cb calv]
+13.8 +9.1 73 +14 +14 1005.3 987.1 +13.2 0.0
06 26.05 ЮВ 2 10 км 10/10 600 м
[Cb calv]
+17.1 +11.2 68 +17 +17 1004.3 986.3
09 26.05 Ю 2 10 км 8/6 600 м
[Cb calv Ci fib]
+19.7 +12.0 61 +22 +28 комфорт 1003.6 985.8
12 26.05 З 2 10 км слаб. ливневой дождь 10/10 600 м
[Cb calv]
+17.8 +15.2 85 +18 +18 1003.1 985.2
15 26.05 СЗ 1 10 км {ливн. осадки} 9/6 600 м
[Cb calv Cc]
+18.3 +15.9 86 +20 +21 1003.7 985.8 +21.2 18

 

Местоположение метеостанции Анна (Воронежская область, Россия): широта 51.48 долгота 40.42 высота над уровнем моря 154 м.

В архиве по умолчанию представлена погода в Анне за последнюю неделю. Архивные данные за месяц целиком и за предыдущие месяцы, начиная с января 2011 года, Вы можете получить, выбрав интересующий диапазон дат из раскрывающегося списка и нажав кнопку "Ввод!".


*Определитесь, кто Вы:
робот инопланетянин человек

Внимание! Время в таблицах - всемирное. Для получения местного времени необходимо прибавить поправку, которая равна 3 ч.

Смотрите также архив погоды в соседних городах и на ближайших метеорологических станциях:

Погода в Каменной Степи (Воронежская область, Россия) (52 км)
Погода в Жердевке (Тамбовская область, Россия) (83 км)
Погода в Лисках (Воронежская область, Россия) (83 км)
Погода в Совхозе им. Ленина (Тамбовская область, Россия) (86 км)
Погода в Воронеже (Воронежская область, Россия) (87 км)
Погода в Конь-Колодезе (Липецкая область, Россия) (115 км)
Погода в Борисоглебске (Воронежская область, Россия) (116 км)
Погода в Павловск (Воронежская область, Россия) (117 км)
Погода в Калаче (Воронежская область, Россия) (126 км)
Погода в Урюпинске (Волгоградская область, Россия) (134 км)

Пояснения к столбцам:

Ветер - указаны скорость ветра в м/с - средняя за 10 мин, порывы в срок и между сроками (в фигурных скобках) и направление, откуда дует ветер: С - северный, СВ - северо-восточный, В - восточный, ЮВ - юго-восточный, Ю - южный, ЮЗ - юго-западный, З - западный, СЗ - северо-западный.
Видимость - горизонтальная дальность видимости в метрах или километрах. При видимости от 1 до 10 км при отсутствии осадков обычно наблюдается дымка, при ухудшении видимости до 1 км и менее - туман. В сухую погоду видимость может ухудшаться дымом, пылью или мглою.
Явления - указаны атмосферные явления, наблюдавшиеся в срок или в последний час перед сроком; фигурными скобками обозначены явления, наблюдавшиеся между сроками (за 1-3 часа до срока); квадратными скобками обозначены град или гололедные отложения с указанием их диаметра в мм.
Облачность - указаны через наклонную черту общая и нижняя облачность в баллах и высота нижней границы облаков в метрах; квадратными скобками обозначены формы облаков: Ci - перистые, Cs - перисто-слоистые, Cc - перисто-кучевые, Ac - высококучевые, As - высокослоистые, Sc - слоисто-кучевые, Ns - слоисто-дождевые, Cu - кучевые, Cb - кучево-дождевые. Подробнее классификацию облаков см. в Атласе облаков (PDF).
T - Температура воздуха - температура, измеренная на высоте 2 м над землей.
Td - Температура точки росы - температура, при понижении до которой содержащийся в воздухе водяной пар достигнет насыщения.
f - Относительная влажность воздуха - влажноcть воздуха, измеренная на высоте 2 м над землей.
Te - Эффективная температура - температура, которую ощущает одетый по сезону человек в тени. Характеристика душности погоды. При расчете учитывается влияние влажности воздуха и скорости ветра на теплоощущения человека.
Tes - Эффективная температура на солнце - температура, которую ощущает человек, с поправкой на солнечный нагрев. Характеристика знойности погоды. Зависит от высоты солнца над горизонтом, облачности и скорости ветра. Ночью, в пасмурную погоду, а также при ветре 12 м/с и более поправка равна нулю.
P - Атмосферное давление - приведенное к уровню моря атмосферное давление.
Po - Атмосферное давление - измеренное на уровне метеостанции атмосферное давление.
Tmin - Минимальная температура - минимум температуры воздуха на высоте 2 м над землей.
Tmax - Максимальная температура - максимум температуры воздуха на высоте 2 м над землей.
R - Количество осадков - Количество выпавших осадков за период времени, мм. При наведении курсора мыши на число - период времени, за который выпало указанное количество осадков.
R24 - Количество осадков - Количество выпавших осадков за 24 часа, мм.
S - Снежный покров - Высота снежного покрова, см. При наведении курсора мыши на число - состояние снежного покрова и степень покрытия местности в баллах.